Regional Weather Roundup
Issued by NWS Newport/Morehead, NC

Current Version | Previous Version | Text Only | Print | Product List | Glossary On
Versions: 1 2 3 4 5 6 7 8 9 10 11 12 13 14 15 16 17 18 19 20 21 22 23 24 25 26 27 28 29 30 31 32 33 34 35 36 37 38 39 40 41 42 43 44 45 46 47 48 49 50
000
ASUS42 KMHX 251213
RWRMHX
WEATHER ROUNDUP FOR EASTERN NORTH CAROLINA
NATIONAL WEATHER SERVICE NEWPORT/MOREHEAD CITY NC
800 AM EDT SUN JUN 25 2017

NOTE: "FAIR" INDICATES FEW OR NO CLOUDS BELOW 12,000 FEET
WITH NO SIGNIFICANT WEATHER AND/OR OBSTRUCTIONS TO VISIBILITY

NCZ015>017-031-032-045>047-102-103-251300-
NORTH COAST

CITY           SKY/WX    TMP DP  RH WIND       PRES   REMARKS
EDENTON        CLOUDY    76  72  88 CALM      30.03S
ELIZABETH CITY CLOUDY    75  74  96 W3        30.02S
KITTY HAWK     LGT RAIN  76  76 100 W7        30.01R
MANTEO         MOSUNNY   75  73  94 W6        30.03R

$$

NCZ045>047-081-094-103-104-251300-
CENTRAL COAST

CITY           SKY/WX    TMP DP  RH WIND       PRES   REMARKS
FRISCO         CLOUDY    78  74  87 W6        30.03R

$$

NCZ095-097-098-100-101-251300-
SOUTHERN COAST

CITY           SKY/WX    TMP DP  RH WIND       PRES   REMARKS
BEAUFORT       CLOUDY    79  77  94 W7        30.02S
CEDAR ISLAND   NOT AVBL
JACKSONVILLE   CLOUDY    77  77 100 W5        30.02S
PINEY ISLAND   CLOUDY   N/A N/A N/A SW6       30.02S
WILMINGTON     CLOUDY    77  75  93 W7        30.03S


$$

NCZ011>013-027>030-043-044-078>080-089-090>093-098-251300-
COASTAL PLAIN

CITY           SKY/WX    TMP DP  RH WIND       PRES   REMARKS
AHOSKIE          N/A     70  70  99 CALM      30.03S FOG
CLINTON        CLOUDY    75  75 100 SW5       30.05R
ELIZABETHTOWN  NOT AVBL
GOLDSBORO      CLOUDY    74  74 100 NW3       30.03R
GREENVILLE     CLOUDY    73  72  94 SW3       30.06R
HAVELOCK       CLOUDY    76  74  93 W6        30.03S
KENANSVILLE    CLOUDY    75  75 100 W5        30.04R FOG
KINSTON        CLOUDY    75  73  94 CALM      30.04S FOG
NEW BERN       CLOUDY    76  75  97 W6        30.03S FOG
RICHLANDS      CLOUDY    76  75  97 W3        30.04R
ROCKY MOUNT    CLOUDY    73  73 100 W3        30.05R
WASHINGTON     CLOUDY   N/A N/A N/A CALM      30.04R
WHITEVILLE     MOSUNNY   76  74  92 CALM      30.04R

$$

AMZ130-135-150-152-154-156-158-170-250-252-270-ANZ085-086-088-633-658-670-251300-
MARINE OBSERVATIONS

STATION/POSITION TIME  TEMP    WIND        PRES    WAVE   SWELL
                       AIR SEA DIR/SP/G            HT/PER HT/PER
                 (UTC) (F)     (DEG/KT/KT) (MB)    (FT/S) (FT/S)
CHESAPEAKE LIGHT NOT AVBL
64 E VA BEACH    1150   73 72  270/  8/  8 1016.4    4/ 7   3/ 7
DUCK             1148   75 59  280/  9/ 13 1016.2
2 E DUCK         NOT AVBL
OREGON INLET     1148          260/  7/  9   N/A
13E OREGON INLT  1148      74                N/A     3/ 6   3/ 6
HATTERAS CG      1148   77 78  240/  5/  8 1016.7
DIAMOND BUOY     1150   79 80  250/ 16/ 17 1016.5    5/ 7   2/ 9
CAPE LOOKOUT     1200   79     250/  7/  9 1016.6
BEAUFORT LAB     1148   78 78  260/  3/  6 1016.0
30 SE NEW RVR IN 1108   80 80  230/ 14/ 17 1016.9
30 SE NEW RVR IN 1143      80                N/A     5/ 6
27 SE WRIGHTSVLE 1108   79 80  220/ 14/ 19 1016.1
5 SE WRIGHTSVLE  1108   78 79  290/ 10/ 14 1016.7
225 S CAPE HAT   1150   81 80  200/ 14/ 16 1020.4    4/ 6   2/ 9
41 SE CHARLESTON 1200   81 81  220/ 16/ 19 1017.5

$$




USA.gov is the U.S. government's official web portal to all federal, state and local government web resources and services.